Weather History for KLRF - March, 2014

Change the Weather History Date:

Saturday, March 22, 2014

  Actual Average Record
Temperature  
Mean Temperature 58 °F -  
Max Temperature 66 °F 65 °F 83 °F (1975)
Min Temperature 50 °F 41 °F 24 °F (1983)
Degree Days  
Heating Degree Days 7    
Growing Degree Days 8 (Base 50)    
Moisture  
Dew Point 45 °F    
Average Humidity 67    
Maximum Humidity 100    
Minimum Humidity 36    
Precipitation  
Precipitation 0.13 in - - ()
Sea Level Pressure  
Sea Level Pressure 30.06 in    
Wind  
Wind Speed 6 mph (NNE)    
Max Wind Speed 14 mph    
Max Gust Speed 23 mph    
Visibility 10 miles    
Events Rain , Thunderstorm    
Averages and records for this station are not official NWS values.
T = Trace of Precipitation, MM = Missing Value Source: NWS Daily Summary

Daily Weather History Graph

Daily Weather History Graph

Search for Another Location

Airport or City:

Trip Planner

Search our weather history database for the weather conditions in past years. The results will help you decide how hot, cold, wet, or windy it might be!

Date:

Astronomy

Mar. 22, 2014 Rise Set
Actual Time 7:09 AM CDT 7:21 PM CDT
Civil Twilight 6:44 AM CDT 7:47 PM CDT
Nautical Twilight 6:14 AM CDT 8:16 PM CDT
Astronomical Twilight 5:44 AM CDT 8:46 PM CDT
Moon 12:30 AM CDT (3/22) 11:04 AM CDT (3/22)
Length of Visible Light 13h 03m
Length of Day
12h 12m
Waning Gibbous, 65% of the Moon is Illuminated
Mar 22
Waning Gibbous
Mar 23
Last Quarter
Mar 30
New
Apr 7
First Quarter
Apr 15
Full

Hourly Weather History & Observations

Time (CDT) Temp. Dew Point Humidity Pressure Visibility Wind Dir Wind Speed Gust Speed Precip Events Conditions
12:58 AM 53.2 °F 46.6 °F 78% 29.95 in 10.0 mi Calm Calm - N/A   Mostly Cloudy
1:58 AM 57.6 °F 46.9 °F 68% 29.97 in 10.0 mi WNW 1.2 mph - N/A   Overcast
2:44 AM 60.8 °F 48.2 °F 63% 29.97 in 10.0 mi NNW 11.5 mph - N/A Rain Light Rain
2:58 AM 60.1 °F 50.2 °F 70% 29.98 in 10.0 mi NW 11.5 mph - 0.00 in Rain Light Rain
3:58 AM 55.8 °F 54.9 °F 97% 29.99 in 8.0 mi SSW 4.6 mph - 0.10 in Rain , Thunderstorm Light Rain
4:10 AM 55.4 °F 55.4 °F 100% 29.99 in 10.0 mi West 3.5 mph - N/A   Overcast
4:20 AM 55.4 °F 55.4 °F 100% 29.98 in 10.0 mi Calm Calm - N/A   Light Drizzle
4:55 AM 55.4 °F 55.4 °F 100% 29.99 in 10.0 mi NW 8.1 mph - N/A Rain Light Rain
4:58 AM 55.4 °F 55.0 °F 99% 30.00 in 10.0 mi NNW 8.1 mph - 0.02 in Rain Light Rain
5:10 AM 55.4 °F 55.4 °F 100% 29.99 in 10.0 mi NNW 3.5 mph - N/A   Overcast
5:58 AM 54.1 °F 53.2 °F 97% 30.02 in 10.0 mi North 1.2 mph - 0.00 in   Mostly Cloudy
6:58 AM 52.0 °F 49.6 °F 92% 30.06 in 10.0 mi Calm Calm - N/A   Overcast
7:58 AM 50.5 °F 47.5 °F 89% 30.09 in 10.0 mi North 5.8 mph - N/A   Clear
8:58 AM 55.6 °F 40.5 °F 57% 30.11 in 10.0 mi North 10.4 mph - N/A   Clear
9:58 AM 58.1 °F 38.1 °F 47% 30.13 in 10.0 mi NNE 12.7 mph 23.0 mph N/A   Clear
10:58 AM 59.2 °F 37.8 °F 45% 30.14 in 10.0 mi NE 12.7 mph 18.4 mph N/A   Clear
11:58 AM 61.5 °F 38.3 °F 42% 30.15 in 10.0 mi ENE 11.5 mph 18.4 mph N/A   Overcast
12:58 PM 63.3 °F 39.2 °F 41% 30.13 in 10.0 mi ENE 12.7 mph - N/A   Clear
1:58 PM 64.0 °F 39.2 °F 40% 30.10 in 10.0 mi NE 9.2 mph - N/A   Scattered Clouds
2:58 PM 65.7 °F 39.2 °F 38% 30.07 in 10.0 mi NE 9.2 mph - N/A   Mostly Cloudy
3:58 PM 66.0 °F 38.3 °F 36% 30.07 in 10.0 mi ENE 5.8 mph 18.4 mph N/A   Partly Cloudy
4:58 PM 65.1 °F 38.7 °F 38% 30.06 in 10.0 mi East 10.4 mph - N/A   Partly Cloudy
5:58 PM 62.4 °F 39.4 °F 43% 30.06 in 10.0 mi ENE 12.7 mph - N/A   Scattered Clouds
6:58 PM 60.4 °F 39.0 °F 45% 30.08 in 10.0 mi ENE 6.9 mph - N/A   Partly Cloudy
7:41 PM 59.0 °F 41.0 °F 51% 30.07 in 10.0 mi NE 5.8 mph - N/A   Light Drizzle
7:58 PM 58.8 °F 41.7 °F 53% 30.09 in 10.0 mi NE 6.9 mph - 0.00 in Rain Light Rain
8:57 PM 53.6 °F 44.6 °F 72% 30.09 in 10.0 mi NE 8.1 mph - N/A   Mostly Cloudy
8:58 PM 54.5 °F 44.4 °F 69% 30.10 in 10.0 mi NE 8.1 mph - 0.01 in   Mostly Cloudy
9:58 PM 54.1 °F 43.5 °F 67% 30.13 in 10.0 mi ENE 10.4 mph - 0.00 in   Overcast
10:39 PM 53.6 °F 42.8 °F 67% 30.11 in 10.0 mi ENE 10.4 mph - N/A Rain Light Rain
10:54 PM 51.8 °F 42.8 °F 71% 30.13 in 10.0 mi NNE 6.9 mph - N/A   Overcast
10:58 PM 52.2 °F 43.5 °F 72% 30.14 in 10.0 mi NNE 8.1 mph - 0.00 in   Overcast
11:58 PM 50.9 °F 40.6 °F 68% 30.16 in 10.0 mi NE 13.8 mph 23.0 mph N/A   Overcast